1 Minute Report
Date Time Wind Direction Wind Speed Wind Gust Wind Variable Altimeter Temperature Dewpoint Relative Humidity Visibility Ceiling Precip Present Weather Density Alt Wind Chill Heat Index
03/19/19 23:11 EDT 160 04 N/A N/A 30.40 40(F), 4(C) 17(F), -8(C) 39% 10SM CLR N/A N/A N/A 40 F N/A 6820
03/19/19 23:10 EDT 160 04 N/A N/A 30.40 40(F), 4(C) 17(F), -8(C) 39% 10SM CLR N/A N/A N/A 40 F N/A 6819
03/19/19 23:09 EDT 160 04 N/A N/A 30.40 40(F), 4(C) 17(F), -8(C) 39% 10SM CLR N/A N/A N/A 40 F N/A 6818
03/19/19 23:08 EDT 160 04 N/A N/A 30.40 40(F), 4(C) 17(F), -8(C) 39% 10SM CLR N/A N/A N/A 40 F N/A 6817
03/19/19 23:07 EDT 150 03 N/A N/A 30.40 39(F), 4(C) 17(F), -8(C) 40% 10SM CLR N/A N/A N/A 39 F N/A 6816
03/19/19 23:06 EDT 150 04 N/A N/A 30.40 39(F), 4(C) 17(F), -8(C) 40% 10SM CLR N/A N/A N/A 39 F N/A 6815
03/19/19 23:05 EDT 150 04 N/A N/A 30.40 39(F), 4(C) 17(F), -8(C) 40% 10SM CLR N/A N/A N/A 39 F N/A 6814
03/19/19 23:04 EDT 140 04 N/A N/A 30.40 40(F), 4(C) 17(F), -8(C) 39% 10SM CLR N/A N/A N/A 40 F N/A 6813
03/19/19 23:03 EDT 140 03 N/A N/A 30.40 40(F), 4(C) 17(F), -8(C) 39% 10SM CLR N/A N/A N/A 40 F N/A 6812
03/19/19 23:02 EDT 140 03 N/A N/A 30.41 40(F), 4(C) 17(F), -8(C) 39% 10SM CLR N/A N/A N/A 40 F N/A 6811
03/19/19 23:01 EDT 150 03 N/A N/A 30.41 40(F), 4(C) 17(F), -8(C) 39% 10SM CLR N/A N/A N/A 40 F N/A 6810
03/19/19 23:00 EDT 150 03 N/A N/A 30.41 40(F), 4(C) 17(F), -8(C) 39% 10SM CLR N/A N/A N/A 40 F N/A 6809
03/19/19 22:59 EDT 150 03 N/A N/A 30.41 40(F), 4(C) 17(F), -8(C) 39% 10SM CLR N/A N/A N/A 40 F N/A 6808
03/19/19 22:58 EDT 150 03 N/A N/A 30.41 40(F), 4(C) 17(F), -8(C) 39% 10SM CLR N/A N/A N/A 40 F N/A 6807
03/19/19 22:57 EDT 150 04 N/A N/A 30.41 40(F), 4(C) 17(F), -8(C) 39% 10SM CLR N/A N/A N/A 40 F N/A 6806
03/19/19 22:56 EDT 140 04 N/A N/A 30.40 40(F), 4(C) 17(F), -8(C) 39% 10SM CLR N/A N/A N/A 40 F N/A 6805
03/19/19 22:55 EDT 140 03 N/A N/A 30.40 39(F), 4(C) 18(F), -8(C) 42% 10SM CLR N/A N/A N/A 39 F N/A 6804
03/19/19 22:54 EDT 140 03 N/A N/A 30.40 39(F), 4(C) 18(F), -8(C) 42% 10SM CLR N/A N/A N/A 39 F N/A 6803
03/19/19 22:53 EDT 140 04 N/A N/A 30.40 39(F), 4(C) 18(F), -8(C) 42% 10SM CLR N/A N/A N/A 39 F N/A 6802
03/19/19 22:52 EDT 140 04 N/A N/A 30.40 40(F), 4(C) 18(F), -8(C) 41% 10SM CLR N/A N/A N/A 40 F N/A 6801
03/19/19 22:51 EDT 140 04 N/A N/A 30.40 40(F), 4(C) 18(F), -8(C) 41% 10SM CLR N/A N/A N/A 40 F N/A 6800
03/19/19 22:50 EDT 140 04 N/A N/A 30.40 40(F), 4(C) 18(F), -8(C) 41% 10SM CLR N/A N/A N/A 40 F N/A 6799
03/19/19 22:49 EDT 140 04 N/A N/A 30.40 40(F), 4(C) 18(F), -8(C) 41% 10SM CLR N/A N/A N/A 40 F N/A 6798
03/19/19 22:48 EDT 140 04 N/A N/A 30.40 40(F), 4(C) 18(F), -8(C) 41% 10SM CLR N/A N/A N/A 40 F N/A 6797
03/19/19 22:47 EDT 140 04 N/A N/A 30.40 40(F), 4(C) 18(F), -8(C) 41% 10SM CLR N/A N/A N/A 40 F N/A 6796
03/19/19 22:46 EDT 140 04 N/A N/A 30.40 40(F), 4(C) 18(F), -8(C) 41% 10SM CLR N/A N/A N/A 40 F N/A 6795
03/19/19 22:45 EDT 140 04 N/A N/A 30.40 40(F), 4(C) 18(F), -8(C) 41% 10SM CLR N/A N/A N/A 40 F N/A 6794
03/19/19 22:44 EDT 140 04 N/A N/A 30.40 40(F), 4(C) 18(F), -8(C) 41% 10SM CLR N/A N/A N/A 40 F N/A 6793
03/19/19 22:43 EDT 140 04 N/A N/A 30.40 39(F), 4(C) 18(F), -8(C) 42% 10SM CLR N/A N/A N/A 39 F N/A 6792
03/19/19 22:42 EDT 140 03 N/A N/A 30.40 39(F), 4(C) 18(F), -8(C) 42% 10SM CLR N/A N/A N/A 39 F N/A 6791
03/19/19 22:41 EDT 140 03 N/A N/A 30.40 39(F), 4(C) 18(F), -8(C) 42% 10SM CLR N/A N/A N/A 39 F N/A 6790
03/19/19 22:40 EDT 130 04 N/A N/A 30.40 39(F), 4(C) 19(F), -7(C) 44% 10SM CLR N/A N/A N/A 39 F N/A 6789
03/19/19 22:39 EDT 130 04 N/A N/A 30.40 39(F), 4(C) 19(F), -7(C) 44% 10SM CLR N/A N/A N/A 39 F N/A 6788
03/19/19 22:38 EDT 130 04 N/A N/A 30.40 39(F), 4(C) 19(F), -7(C) 44% 10SM CLR N/A N/A N/A 39 F N/A 6787
03/19/19 22:37 EDT 130 04 N/A N/A 30.40 39(F), 4(C) 19(F), -7(C) 44% 10SM CLR N/A N/A N/A 39 F N/A 6786
03/19/19 22:36 EDT 130 04 N/A N/A 30.40 39(F), 4(C) 19(F), -7(C) 44% 10SM CLR N/A N/A N/A 39 F N/A 6785
03/19/19 22:35 EDT 130 04 N/A N/A 30.40 39(F), 4(C) 19(F), -7(C) 44% 10SM CLR N/A N/A N/A 39 F N/A 6784
03/19/19 22:34 EDT 130 05 N/A N/A 30.40 39(F), 4(C) 19(F), -7(C) 44% 10SM CLR N/A N/A N/A 35 F N/A 6783
03/19/19 22:33 EDT 130 05 N/A N/A 30.40 39(F), 4(C) 19(F), -7(C) 44% 10SM CLR N/A N/A N/A 35 F N/A 6782
03/19/19 22:32 EDT 130 05 N/A N/A 30.40 39(F), 4(C) 19(F), -7(C) 44% 10SM CLR N/A N/A N/A 35 F N/A 6781
03/19/19 22:31 EDT 130 05 N/A N/A 30.40 39(F), 4(C) 19(F), -7(C) 44% 10SM CLR N/A N/A N/A 35 F N/A 6780
03/19/19 22:30 EDT 130 05 N/A N/A 30.40 39(F), 4(C) 19(F), -7(C) 44% 10SM CLR N/A N/A N/A 35 F N/A 6779
03/19/19 22:29 EDT 130 05 N/A N/A 30.40 40(F), 4(C) 19(F), -7(C) 42% 10SM CLR N/A N/A N/A 36 F N/A 6778
03/19/19 22:28 EDT 130 05 N/A N/A 30.40 40(F), 4(C) 19(F), -7(C) 42% 10SM CLR N/A N/A N/A 36 F N/A 6777
03/19/19 22:27 EDT 130 05 N/A N/A 30.40 40(F), 4(C) 19(F), -7(C) 42% 10SM CLR N/A N/A N/A 36 F N/A 6776
03/19/19 22:26 EDT 130 05 N/A N/A 30.40 40(F), 4(C) 19(F), -7(C) 42% 10SM CLR N/A N/A N/A 36 F N/A 6775
03/19/19 22:25 EDT 130 05 N/A N/A 30.40 40(F), 4(C) 19(F), -7(C) 42% 10SM CLR N/A N/A N/A 36 F N/A 6774
03/19/19 22:24 EDT 130 05 N/A N/A 30.40 40(F), 4(C) 19(F), -7(C) 42% 10SM CLR N/A N/A N/A 36 F N/A 6773
03/19/19 22:23 EDT 130 05 N/A N/A 30.40 40(F), 4(C) 19(F), -7(C) 42% 10SM CLR N/A N/A N/A 36 F N/A 6772
03/19/19 22:22 EDT 130 04 N/A N/A 30.40 39(F), 4(C) 19(F), -7(C) 44% 10SM CLR N/A N/A N/A 39 F N/A 6771
03/19/19 22:21 EDT 130 04 N/A N/A 30.40 39(F), 4(C) 19(F), -7(C) 44% 10SM CLR N/A N/A N/A 39 F N/A 6770
03/19/19 22:20 EDT 130 05 N/A N/A 30.40 39(F), 4(C) 19(F), -7(C) 44% 10SM CLR N/A N/A N/A 35 F N/A 6769
03/19/19 22:19 EDT 130 05 N/A N/A 30.40 39(F), 4(C) 19(F), -7(C) 44% 10SM CLR N/A N/A N/A 35 F N/A 6768
03/19/19 22:18 EDT 120 05 N/A N/A 30.40 39(F), 4(C) 19(F), -7(C) 44% 10SM CLR N/A N/A N/A 35 F N/A 6767
03/19/19 22:17 EDT 120 06 N/A N/A 30.40 39(F), 4(C) 19(F), -7(C) 44% 10SM CLR N/A N/A N/A 34 F N/A 6766
03/19/19 22:16 EDT 120 06 N/A N/A 30.40 40(F), 4(C) 19(F), -7(C) 42% 10SM CLR N/A N/A N/A 35 F N/A 6765
03/19/19 22:15 EDT 120 06 N/A N/A 30.40 40(F), 4(C) 19(F), -7(C) 42% 10SM CLR N/A N/A N/A 35 F N/A 6764
03/19/19 22:14 EDT 120 06 N/A N/A 30.40 40(F), 4(C) 19(F), -7(C) 42% 10SM CLR N/A N/A N/A 35 F N/A 6763
03/19/19 22:13 EDT 120 06 N/A N/A 30.40 40(F), 4(C) 19(F), -7(C) 42% 10SM CLR N/A N/A N/A 35 F N/A 6762
03/19/19 22:12 EDT 120 06 N/A N/A 30.40 40(F), 4(C) 19(F), -7(C) 42% 10SM CLR N/A N/A N/A 35 F N/A 6761
03/19/19 22:11 EDT 110 06 N/A N/A 30.40 39(F), 4(C) 19(F), -7(C) 44% 10SM CLR N/A N/A N/A 34 F N/A 6760
03/19/19 22:10 EDT 110 06 N/A N/A 30.40 39(F), 4(C) 19(F), -7(C) 44% 10SM CLR N/A N/A N/A 34 F N/A 6759
03/19/19 22:09 EDT 110 05 N/A N/A 30.40 40(F), 4(C) 19(F), -7(C) 42% 10SM CLR N/A N/A N/A 36 F N/A 6758
03/19/19 22:08 EDT 110 05 N/A N/A 30.40 40(F), 4(C) 19(F), -7(C) 42% 10SM CLR N/A N/A N/A 36 F N/A 6757
03/19/19 22:07 EDT 110 05 N/A N/A 30.40 40(F), 4(C) 19(F), -7(C) 42% 10SM CLR N/A N/A N/A 36 F N/A 6756
03/19/19 22:06 EDT 110 05 N/A N/A 30.40 40(F), 4(C) 19(F), -7(C) 42% 10SM CLR N/A N/A N/A 36 F N/A 6755
03/19/19 22:05 EDT 110 05 N/A N/A 30.40 40(F), 4(C) 19(F), -7(C) 42% 10SM CLR N/A N/A N/A 36 F N/A 6754
03/19/19 22:04 EDT 110 05 N/A N/A 30.40 40(F), 4(C) 19(F), -7(C) 42% 10SM CLR N/A N/A N/A 36 F N/A 6753
03/19/19 22:03 EDT 110 05 N/A N/A 30.40 40(F), 4(C) 19(F), -7(C) 42% 10SM CLR N/A N/A N/A 36 F N/A 6752
03/19/19 22:02 EDT 110 05 N/A N/A 30.40 40(F), 4(C) 19(F), -7(C) 42% 10SM CLR N/A N/A N/A 36 F N/A 6751
03/19/19 22:01 EDT 110 04 N/A N/A 30.40 40(F), 4(C) 19(F), -7(C) 42% 10SM CLR N/A N/A N/A 40 F N/A 6750
03/19/19 22:00 EDT 110 04 N/A N/A 30.40 40(F), 4(C) 19(F), -7(C) 42% 10SM CLR N/A N/A N/A 40 F N/A 6749
03/19/19 21:59 EDT 110 04 N/A N/A 30.40 40(F), 4(C) 19(F), -7(C) 42% 10SM CLR N/A N/A N/A 40 F N/A 6748
03/19/19 21:58 EDT 100 04 N/A N/A 30.40 40(F), 4(C) 19(F), -7(C) 42% 10SM CLR N/A N/A N/A 40 F N/A 6747
03/19/19 21:57 EDT 100 04 N/A N/A 30.40 40(F), 4(C) 20(F), -7(C) 44% 10SM CLR N/A N/A N/A 40 F N/A 6746
03/19/19 21:56 EDT 100 04 N/A N/A 30.40 39(F), 4(C) 20(F), -7(C) 46% 10SM CLR N/A N/A N/A 39 F N/A 6745
03/19/19 21:55 EDT 100 04 N/A N/A 30.40 39(F), 4(C) 20(F), -7(C) 46% 10SM CLR N/A N/A N/A 39 F N/A 6744
03/19/19 21:54 EDT 100 04 N/A N/A 30.40 39(F), 4(C) 20(F), -7(C) 46% 10SM CLR N/A N/A N/A 39 F N/A 6743
03/19/19 21:53 EDT 100 04 N/A N/A 30.40 39(F), 4(C) 19(F), -7(C) 44% 10SM CLR N/A N/A N/A 39 F N/A 6742
03/19/19 21:52 EDT 100 04 N/A N/A 30.40 40(F), 4(C) 19(F), -7(C) 42% 10SM CLR N/A N/A N/A 40 F N/A 6741
03/19/19 21:51 EDT 110 04 N/A N/A 30.40 40(F), 4(C) 19(F), -7(C) 42% 10SM CLR N/A N/A N/A 40 F N/A 6740
03/19/19 21:50 EDT 110 04 N/A N/A 30.40 40(F), 4(C) 19(F), -7(C) 42% 10SM CLR N/A N/A N/A 40 F N/A 6739
03/19/19 21:49 EDT 110 04 N/A N/A 30.40 40(F), 4(C) 19(F), -7(C) 42% 10SM CLR N/A N/A N/A 40 F N/A 6738
03/19/19 21:48 EDT 110 05 N/A N/A 30.40 40(F), 4(C) 19(F), -7(C) 42% 10SM CLR N/A N/A N/A 36 F N/A 6737
03/19/19 21:47 EDT 120 05 N/A N/A 30.40 40(F), 4(C) 19(F), -7(C) 42% 10SM CLR N/A N/A N/A 36 F N/A 6736
03/19/19 21:46 EDT 120 04 N/A N/A 30.40 40(F), 4(C) 19(F), -7(C) 42% 10SM CLR N/A N/A N/A 40 F N/A 6735
03/19/19 21:45 EDT 120 04 N/A N/A 30.40 40(F), 4(C) 19(F), -7(C) 42% 10SM CLR N/A N/A N/A 40 F N/A 6734
03/19/19 21:44 EDT 130 04 N/A N/A 30.40 40(F), 4(C) 19(F), -7(C) 42% 10SM CLR N/A N/A N/A 40 F N/A 6733
03/19/19 21:43 EDT 130 04 N/A N/A 30.40 40(F), 4(C) 19(F), -7(C) 42% 10SM CLR N/A N/A N/A 40 F N/A 6732
03/19/19 21:42 EDT 130 04 N/A N/A 30.40 40(F), 4(C) 19(F), -7(C) 42% 10SM CLR N/A N/A N/A 40 F N/A 6731
03/19/19 21:41 EDT 130 04 N/A N/A 30.40 40(F), 4(C) 19(F), -7(C) 42% 10SM CLR N/A N/A N/A 40 F N/A 6730
03/19/19 21:40 EDT 120 04 N/A N/A 30.40 40(F), 4(C) 19(F), -7(C) 42% 10SM CLR N/A N/A N/A 40 F N/A 6729
03/19/19 21:39 EDT 120 04 N/A N/A 30.40 39(F), 4(C) 19(F), -7(C) 44% 10SM CLR N/A N/A N/A 39 F N/A 6728
03/19/19 21:38 EDT 110 05 N/A N/A 30.40 39(F), 4(C) 19(F), -7(C) 44% 10SM CLR N/A N/A N/A 35 F N/A 6727
03/19/19 21:37 EDT 110 05 N/A N/A 30.40 39(F), 4(C) 19(F), -7(C) 44% 10SM CLR N/A N/A N/A 35 F N/A 6726
03/19/19 21:36 EDT 110 05 N/A N/A 30.40 40(F), 4(C) 19(F), -7(C) 42% 10SM CLR N/A N/A N/A 36 F N/A 6725
03/19/19 21:35 EDT 110 05 N/A N/A 30.40 40(F), 4(C) 19(F), -7(C) 42% 10SM CLR N/A N/A N/A 36 F N/A 6724
03/19/19 21:34 EDT 100 05 N/A N/A 30.40 40(F), 4(C) 19(F), -7(C) 42% 10SM CLR N/A N/A N/A 36 F N/A 6723
03/19/19 21:33 EDT 100 05 N/A N/A 30.40 40(F), 4(C) 19(F), -7(C) 42% 10SM CLR N/A N/A N/A 36 F N/A 6722
03/19/19 21:32 EDT 100 05 N/A N/A 30.40 41(F), 5(C) 19(F), -7(C) 41% 10SM CLR N/A N/A N/A 37 F N/A 6721
03/19/19 21:31 EDT 100 05 N/A N/A 30.40 41(F), 5(C) 19(F), -7(C) 41% 10SM CLR N/A N/A N/A 37 F N/A 6720
03/19/19 21:30 EDT 110 05 N/A N/A 30.40 41(F), 5(C) 19(F), -7(C) 41% 10SM CLR N/A N/A N/A 37 F N/A 6719
03/19/19 21:29 EDT 110 05 N/A N/A 30.40 41(F), 5(C) 19(F), -7(C) 41% 10SM CLR N/A N/A N/A 37 F N/A 6718
03/19/19 21:28 EDT 110 05 N/A N/A 30.40 40(F), 4(C) 19(F), -7(C) 42% 10SM CLR N/A N/A N/A 36 F N/A 6717
03/19/19 21:27 EDT 110 05 N/A N/A 30.40 40(F), 4(C) 19(F), -7(C) 42% 10SM CLR N/A N/A N/A 36 F N/A 6716
03/19/19 21:26 EDT 110 05 N/A N/A 30.40 39(F), 4(C) 20(F), -7(C) 46% 10SM CLR N/A N/A N/A 35 F N/A 6715
03/19/19 21:25 EDT 120 04 N/A N/A 30.40 39(F), 4(C) 20(F), -7(C) 46% 10SM CLR N/A N/A N/A 39 F N/A 6714
03/19/19 21:24 EDT 120 04 N/A N/A 30.40 39(F), 4(C) 20(F), -7(C) 46% 10SM CLR N/A N/A N/A 39 F N/A 6713
03/19/19 21:23 EDT 120 05 N/A N/A 30.40 39(F), 4(C) 20(F), -7(C) 46% 10SM CLR N/A N/A N/A 35 F N/A 6712
03/19/19 21:22 EDT 120 05 N/A N/A 30.40 39(F), 4(C) 20(F), -7(C) 46% 10SM CLR N/A N/A N/A 35 F N/A 6711
03/19/19 21:21 EDT 120 04 N/A N/A 30.39 40(F), 4(C) 20(F), -7(C) 44% 10SM CLR N/A N/A N/A 40 F N/A 6710
03/19/19 21:20 EDT 110 04 N/A N/A 30.39 40(F), 4(C) 20(F), -7(C) 44% 10SM CLR N/A N/A N/A 40 F N/A 6709
03/19/19 21:19 EDT 100 04 N/A N/A 30.39 40(F), 4(C) 20(F), -7(C) 44% 10SM CLR N/A N/A N/A 40 F N/A 6708
03/19/19 21:18 EDT 100 04 N/A N/A 30.39 41(F), 5(C) 20(F), -7(C) 42% 10SM CLR N/A N/A N/A 41 F N/A 6707
03/19/19 21:17 EDT 100 04 N/A N/A 30.39 41(F), 5(C) 20(F), -7(C) 42% 10SM CLR N/A N/A N/A 41 F N/A 6706
03/19/19 21:16 EDT 090 04 N/A N/A 30.39 41(F), 5(C) 20(F), -7(C) 42% 10SM CLR N/A N/A N/A 41 F N/A 6705
03/19/19 21:15 EDT 090 04 N/A N/A 30.39 41(F), 5(C) 20(F), -7(C) 42% 10SM CLR N/A N/A N/A 41 F N/A 6704
03/19/19 21:14 EDT 090 04 N/A N/A 30.39 41(F), 5(C) 20(F), -7(C) 42% 10SM CLR N/A N/A N/A 41 F N/A 6703
03/19/19 21:13 EDT 090 04 N/A N/A 30.39 41(F), 5(C) 20(F), -7(C) 42% 10SM CLR N/A N/A N/A 41 F N/A 6702
03/19/19 21:12 EDT 100 04 N/A N/A 30.39 41(F), 5(C) 20(F), -7(C) 42% 10SM CLR N/A N/A N/A 41 F N/A 6701
03/19/19 21:11 EDT 090 04 N/A N/A 30.39 40(F), 4(C) 20(F), -7(C) 44% 10SM CLR N/A N/A N/A 40 F N/A 6700